Tracking 27122 objects as of 24-Mar-2023
HD Live streaming from Space Station
objects crossing your sky now

DMSP 5D-2 F11 DEB

Track DMSP 5D-2 F11 DEB now!
10-day predictions


NORAD ID: 28333
Int'l Code: 1991-082AW
Perigee: 750.2 km
Apogee: 760.8 km
Inclination: 98.6 °
Period: 99.8 minutes
Semi major axis: 7126 km
RCS: 0.0092 m2 (small)
Launch date: November 28, 1991
Source: United States (US)
Launch site: AIR FORCE WESTERN TEST RANGE (AFWTR)

Note: This is SATELLITE DEBRIS
Your satellite tracking list
Your tracking list is empty




NASA's NSSDC Master Catalog

Two Line Element Set (TLE):
1 28333U 91082AW  23082.01575413  .00009890  00000-0  29574-2 0  9995
2 28333  98.5803 146.7088 0007443 303.0321 178.6290 14.43082249983828
Source of the keplerian elements: AFSPC